[[{"header":{"parameterUnit":"m.s-1","parameterCategory":1,"la1":30.2991,"la2":30.254,"lo1":-89.0895,"lo2":-89.0444,"dx":0.0017,"dy":0.0017,"nx":28,"ny":28,"refTime":"2022-11-21T15:00:00:Z","depth":0,"parameterNumber":2,"parameterNumberName":"U-component_of_WINDS"},"data":[0,0,0,0,0,0,0,0,0,0,0,0,0,0,0,0,0,0,0,0,0,0,0,0,0,0,0,0,0,0,0,0,0,0,0,0,0,0,0,0,0,0,0,0,0,0,0,0,0,0,0,0,0,0,0,0,0,0,-2.5814,-2.5815,0,-2.5851,-2.5851,-2.5852,-2.5756,-2.5753,-2.575,-2.5747,-2.5786,-2.579,-2.5793,0,0,0,0,0,0,0,0,0,0,0,0,0,-2.5663,-2.5666,-2.5814,-2.5815,-2.5815,-2.5851,-2.5851,-2.5852,-2.5757,-2.5753,-2.5749,-2.5746,-2.5785,-2.5789,-2.5794,0,0,0,0,0,0,0,0,0,0,0,0,0,-2.5717,-2.5667,-2.5814,-2.5772,-2.5769,-2.5851,-2.5851,-2.5852,-2.5757,-2.5753,-2.5748,-2.5744,-2.5783,-2.5789,-2.5794,-2.5919,0,0,-2.5812,-2.5814,0,0,0,0,0,0,0,0,-2.5714,-2.5722,-2.5778,-2.5775,-2.5771,-2.5794,-2.5812,-2.5875,-2.5759,-2.5762,-2.5747,-2.5742,-2.5792,-2.5797,-2.5814,-2.5921,-2.5923,-2.5812,-2.5816,-2.5818,-2.582,0,0,0,0,0,0,0,-2.571,-2.572,-2.5829,-2.5779,-2.5775,-2.5751,-2.5754,-2.5823,-2.5802,-2.5761,-2.5754,-2.576,-2.579,-2.5809,-2.5814,-2.5923,-2.5812,-2.5817,-2.5821,-2.5823,-2.6135,-2.6139,0,0,0,0,0,0,-2.5712,-2.5718,-2.5828,-2.583,-2.5731,-2.5758,-2.5761,-2.5792,-2.5801,-2.5798,-2.5764,-2.5755,-2.5801,-2.5807,-2.5815,-2.5962,-2.5818,-2.5824,-2.5827,-2.613,-2.6136,-2.6141,0,0,0,0,0,0,-2.5709,-2.5723,-2.5826,-2.5772,-2.5783,-2.5765,-2.58,-2.5795,-2.5813,-2.5803,-2.5798,-2.5787,-2.5798,-2.5807,-2.5894,-2.5962,-2.5826,-2.5831,-2.6124,-2.6132,-2.6138,-2.6258,0,0,0,0,0,0,-2.5705,-2.5722,-2.577,-2.5774,-2.5787,-2.5905,-2.5805,-2.5799,-2.5823,-2.5813,-2.5823,-2.5821,-2.5795,-2.5886,-2.59,-2.5968,-2.5836,-2.6118,-2.6128,-2.6136,-2.6248,-2.6268,-2.6286,0,0,0,0,0,-2.57,-2.5802,-2.5772,-2.5786,-2.5846,-2.5909,-2.5916,-2.5884,-2.5829,-2.5877,-2.587,-2.582,-2.5952,-2.5896,-2.591,-2.5981,-2.6114,-2.6125,-2.6135,-2.6239,-2.6264,-2.6286,0,0,0,0,0,0,-2.5807,-2.5802,-2.5769,-2.5875,-2.5893,-2.5893,-2.5952,-2.5912,-2.5946,-2.5935,-2.5894,-2.5897,-2.5992,-2.5995,-2.5932,-2.6102,-2.6023,-2.6038,-2.6098,-2.6121,-2.614,-2.6138,-2.5841,0,0,0,0,0,-2.5843,-2.5895,-2.5887,-2.5982,-2.5992,-2.5971,-2.5997,-2.5971,-2.5988,-2.5995,-2.5995,-2.6013,-2.6059,-2.609,-2.6131,-2.6247,-2.6248,-2.6303,-2.6322,-2.6338,-2.6351,-2.6413,-2.6437,-2.6177,-2.6177,-2.6177,0,0,-2.5918,-2.5921,-2.5957,-2.6003,-2.6014,-2.6069,-2.5978,-2.604,-2.608,-2.6005,-2.6087,-2.6087,-2.6105,-2.6207,-2.6252,-2.6213,-2.6423,-2.6352,-2.6364,-2.6369,-2.6427,-2.6451,-2.6473,-2.6184,-2.6183,-2.6182,0,0,-2.6082,-2.609,-2.617,-2.6182,-2.6199,-2.6184,-2.6203,-2.6209,-2.6206,-2.6288,-2.6232,-2.6279,-2.6358,-2.6374,-2.6392,-2.6561,-2.6517,-2.6575,-2.6676,-2.6737,-2.6757,-2.6775,-2.6836,-2.6859,-2.6588,-2.6589,-2.6589,0,-2.6174,-2.6254,-2.6216,-2.6282,-2.6304,-2.6237,-2.6318,-2.6332,-2.6362,-2.6379,-2.6334,-2.6431,-2.6439,-2.6544,-2.6585,-2.6602,-2.6623,-2.6575,-2.6757,-2.6775,-2.6791,-2.6849,-2.6872,-2.6596,-2.6595,-2.6594,-2.6594,0,-2.6366,-2.6422,-2.6484,-2.6515,-2.6544,-2.6617,-2.659,-2.6624,-2.6595,-2.6584,-2.6668,-2.6674,-2.6716,-2.6738,-2.671,-2.684,-2.6814,-2.6764,-2.6684,-2.6824,-2.6878,-2.6899,-2.6606,-2.6603,-2.6601,-2.66,0,0,-2.6601,-2.6608,-2.6632,-2.6645,-2.6658,-2.6701,-2.6771,-2.6811,-2.6841,-2.6864,-2.6921,-2.6989,-2.6942,-2.6963,-2.6936,-2.6989,-2.7124,-2.6932,-2.6931,-2.6968,-2.7267,-2.7306,-2.7332,-2.7094,-2.7098,-2.7101,-2.7266,0,-2.6764,-2.6884,-2.6851,-2.6971,-2.7023,-2.6959,-2.702,-2.7035,-2.7026,-2.7069,-2.7059,-2.7109,-2.7043,-2.7055,-2.7104,-2.7097,-2.7183,-2.7084,-2.7148,-2.7151,-2.7147,-2.736,-2.7402,-2.7558,-2.7286,-2.729,-2.7293,0,-2.6972,-2.7002,-2.7127,-2.7131,-2.7152,-2.7207,-2.7241,-2.7282,-2.7297,-2.7287,-2.731,-2.7272,-2.7341,-2.7259,-2.7353,-2.7286,-2.731,-2.731,-2.7315,-2.7322,-2.7231,-2.7374,-2.7606,-2.763,-2.7325,-2.7323,-2.732,0,-2.7132,-2.7204,-2.7288,-2.7301,-2.7308,-2.7348,-2.7353,-2.7364,-2.739,-2.7419,-2.7435,-2.7472,-2.7493,-2.7523,-2.7495,-2.7438,-2.7594,-2.751,-2.7589,-2.759,-2.7626,-2.7624,-2.7867,-2.7639,-2.7639,-2.7638,-2.7638,0,-2.7319,-2.7398,-2.736,-2.7412,-2.7499,-2.746,-2.7547,-2.7544,-2.7554,-2.7604,-2.7551,-2.7599,-2.7559,-2.7604,-2.7583,-2.7665,-2.7674,-2.7669,-2.7662,-2.7674,-2.7675,-2.7691,-2.768,-2.7644,-2.7643,-2.7642,-2.7641,0,-2.7514,-2.7491,-2.7579,-2.7578,-2.758,-2.7644,-2.7643,-2.7691,-2.7678,-2.7742,-2.7755,-2.7735,-2.7785,-2.776,-2.7812,-2.7797,-2.7903,-2.7882,-2.7898,-2.7893,-2.7974,-2.7967,-2.8236,-2.827,-2.8019,-2.8021,-2.8023,0,-2.7636,-2.7695,-2.7701,-2.773,-2.7739,-2.7787,-2.7813,-2.7777,-2.7806,-2.7827,-2.7873,-2.7918,-2.7952,-2.8035,-2.8025,-2.8064,-2.8044,-2.8136,-2.805,-2.806,-2.8047,-2.8045,-2.8051,-2.8154,-2.8157,-2.8159,-2.8161,0,-2.7855,-2.784,-2.788,-2.7916,-2.7948,-2.7975,-2.7997,-2.8024,-2.7988,-2.8023,-2.8074,-2.81,-2.8153,-2.8198,-2.8232,-2.8237,-2.8194,-2.8188,-2.8208,-2.8222,-2.823,-2.8228,-2.7947,-2.8182,-2.818,-2.8179,-2.8177,-2.8177,-2.8018,-2.8067,-2.8079,-2.8125,-2.8137,-2.8159,-2.8204,-2.8196,-2.8237,-2.8277,-2.8252,-2.8312,-2.8324,-2.8365,-2.8376,-2.8421,-2.8385,-2.8414,-2.8422,-2.843,-2.8442,-2.8221,-2.8427,-2.8426,-2.8426,-2.8425,-2.8425,0,-2.8235,-2.8239,-2.8281,-2.8313,-2.8349,-2.8304,-2.8325,-2.8359,-2.8411,-2.8427,-2.8461,-2.8519,-2.8562,-2.8556,-2.8595,-2.8633,-2.8614,-2.8645,-2.8643,-2.8645,-2.8471,-2.845,-2.866,-2.8659,-2.8659,-2.8659,-2.8659,-2.8659,-2.8352,-2.8434,-2.8421,-2.8509,-2.8511,-2.8569,-2.8585,-2.8605,-2.8617,-2.8684,-2.8719,-2.8714,-2.8721,-2.876,-2.8798,-2.8795,-2.8813,-2.8851,-2.8841,-2.868,-2.8657,-2.8635,-2.8615,-2.8855,-2.8855,-2.901,-2.9012,-2.9013]},{"header":{"parameterUnit":"m.s-1","parameterCategory":1,"la1":30.2991,"la2":30.254,"lo1":-89.0895,"lo2":-89.0444,"dx":0.0017,"dy":0.0017,"nx":28,"ny":28,"refTime":"2022-11-21T15:00:00:Z","depth":0,"parameterNumber":3,"parameterNumberName":"V-component_of_WINDS"},"data":[0,0,0,0,0,0,0,0,0,0,0,0,0,0,0,0,0,0,0,0,0,0,0,0,0,0,0,0,0,0,0,0,0,0,0,0,0,0,0,0,0,0,0,0,0,0,0,0,0,0,0,0,0,0,0,0,0,0,-3.5682,-3.5683,0,-3.5704,-3.5704,-3.5704,-3.5647,-3.5645,-3.5643,-3.5642,-3.5662,-3.5664,-3.5666,0,0,0,0,0,0,0,0,0,0,0,0,0,-3.559,-3.5592,-3.5682,-3.5683,-3.5683,-3.5704,-3.5704,-3.5704,-3.5647,-3.5645,-3.5643,-3.5641,-3.5661,-3.5664,-3.5667,0,0,0,0,0,0,0,0,0,0,0,0,0,-3.5623,-3.5593,-3.5682,-3.5657,-3.5655,-3.5704,-3.5704,-3.5704,-3.5648,-3.5645,-3.5642,-3.564,-3.5661,-3.5664,-3.5667,-3.5741,0,0,-3.5677,-3.5678,0,0,0,0,0,0,0,0,-3.5621,-3.5626,-3.5661,-3.5659,-3.5657,-3.567,-3.5679,-3.5716,-3.5648,-3.565,-3.5642,-3.5639,-3.5667,-3.5669,-3.5679,-3.5742,-3.5742,-3.5677,-3.5679,-3.5681,-3.5682,0,0,0,0,0,0,0,-3.5619,-3.5625,-3.5691,-3.5661,-3.5659,-3.5644,-3.5646,-3.5686,-3.5673,-3.565,-3.5646,-3.5649,-3.5665,-3.5676,-3.5679,-3.5743,-3.5677,-3.568,-3.5682,-3.5684,-3.5865,-3.5868,0,0,0,0,0,0,-3.562,-3.5623,-3.569,-3.5691,-3.5632,-3.5648,-3.565,-3.5668,-3.5673,-3.5671,-3.5652,-3.5647,-3.5672,-3.5675,-3.568,-3.5765,-3.5681,-3.5684,-3.5686,-3.5862,-3.5866,-3.5869,0,0,0,0,0,0,-3.5618,-3.5627,-3.5689,-3.5656,-3.5663,-3.5652,-3.5674,-3.567,-3.5681,-3.5674,-3.5671,-3.5665,-3.567,-3.5675,-3.5726,-3.5765,-3.5685,-3.5688,-3.5859,-3.5863,-3.5867,-3.5938,0,0,0,0,0,0,-3.5616,-3.5626,-3.5655,-3.5657,-3.5665,-3.5736,-3.5676,-3.5673,-3.5687,-3.5681,-3.5686,-3.5684,-3.5668,-3.5721,-3.5729,-3.5768,-3.5691,-3.5855,-3.5861,-3.5866,-3.5932,-3.5944,-3.5954,0,0,0,0,0,-3.5613,-3.5674,-3.5657,-3.5665,-3.5701,-3.5738,-3.5743,-3.5723,-3.5691,-3.5719,-3.5714,-3.5684,-3.576,-3.5727,-3.5735,-3.5776,-3.5853,-3.5859,-3.5865,-3.5927,-3.5942,-3.5954,0,0,0,0,0,0,-3.5676,-3.5674,-3.5655,-3.5718,-3.5729,-3.5728,-3.5763,-3.574,-3.5759,-3.5753,-3.5727,-3.5729,-3.5784,-3.5785,-3.5748,-3.5847,-3.58,-3.5809,-3.5844,-3.5858,-3.5869,-3.5868,-3.5694,0,0,0,0,0,-3.5697,-3.5729,-3.5725,-3.5781,-3.5788,-3.5775,-3.579,-3.5775,-3.5784,-3.5788,-3.5787,-3.5797,-3.5823,-3.5841,-3.5864,-3.5932,-3.5931,-3.5964,-3.5975,-3.5984,-3.5992,-3.6026,-3.6041,-3.589,-3.589,-3.589,0,0,-3.5742,-3.5744,-3.5766,-3.5794,-3.58,-3.5832,-3.5779,-3.5815,-3.5839,-3.5794,-3.5841,-3.5841,-3.585,-3.5909,-3.5935,-3.5912,-3.6033,-3.5993,-3.6,-3.6002,-3.6035,-3.6049,-3.6061,-3.5894,-3.5893,-3.5893,0,0,-3.5839,-3.5845,-3.5892,-3.5899,-3.591,-3.59,-3.5912,-3.5915,-3.5913,-3.596,-3.5927,-3.5954,-3.5999,-3.6007,-3.6017,-3.6116,-3.6089,-3.6124,-3.6183,-3.6217,-3.6229,-3.6239,-3.6274,-3.6286,-3.6132,-3.6132,-3.6132,0,-3.5893,-3.5941,-3.5919,-3.5958,-3.5971,-3.5932,-3.5979,-3.5987,-3.6004,-3.6013,-3.5987,-3.6042,-3.6046,-3.6106,-3.613,-3.614,-3.6151,-3.6124,-3.6229,-3.6239,-3.6248,-3.6281,-3.6294,-3.6136,-3.6136,-3.6135,-3.6135,0,-3.6006,-3.604,-3.6076,-3.6094,-3.6111,-3.6154,-3.6138,-3.6158,-3.614,-3.6133,-3.6182,-3.6184,-3.6207,-3.622,-3.6204,-3.6278,-3.6263,-3.6233,-3.6186,-3.6267,-3.6298,-3.631,-3.6142,-3.6141,-3.6139,-3.6138,0,0,-3.6144,-3.6149,-3.6163,-3.617,-3.6178,-3.6203,-3.6243,-3.6266,-3.6283,-3.6296,-3.6328,-3.6367,-3.6339,-3.6351,-3.6334,-3.6364,-3.6442,-3.6331,-3.633,-3.6351,-3.6522,-3.6544,-3.6559,-3.6424,-3.6426,-3.6428,-3.6521,0,-3.624,-3.631,-3.6291,-3.636,-3.639,-3.6353,-3.6387,-3.6396,-3.639,-3.6414,-3.6408,-3.6436,-3.6397,-3.6404,-3.6432,-3.6426,-3.6476,-3.6419,-3.6453,-3.6455,-3.6452,-3.6575,-3.6599,-3.6686,-3.6533,-3.6535,-3.6536,0,-3.6361,-3.6378,-3.6451,-3.6452,-3.6464,-3.6496,-3.6515,-3.6538,-3.6546,-3.654,-3.6553,-3.653,-3.6568,-3.6521,-3.6574,-3.6536,-3.6548,-3.6548,-3.655,-3.6553,-3.65,-3.658,-3.6714,-3.6727,-3.6555,-3.6553,-3.6552,0,-3.6453,-3.6495,-3.6543,-3.6551,-3.6554,-3.6577,-3.658,-3.6585,-3.6599,-3.6615,-3.6624,-3.6645,-3.6656,-3.6672,-3.6655,-3.6622,-3.6709,-3.6661,-3.6705,-3.6705,-3.6725,-3.6724,-3.6862,-3.6734,-3.6734,-3.6733,-3.6733,0,-3.6562,-3.6607,-3.6585,-3.6615,-3.6664,-3.6642,-3.6691,-3.6689,-3.6694,-3.6722,-3.6691,-3.6717,-3.6694,-3.6718,-3.6705,-3.675,-3.6755,-3.6751,-3.6747,-3.6753,-3.6754,-3.6761,-3.6754,-3.6737,-3.6736,-3.6735,-3.6735,0,-3.6674,-3.6661,-3.6711,-3.671,-3.6711,-3.6747,-3.6746,-3.6773,-3.6765,-3.68,-3.6807,-3.6795,-3.6822,-3.6807,-3.6834,-3.6825,-3.6884,-3.6871,-3.6881,-3.6878,-3.6922,-3.6918,-3.707,-3.7088,-3.6949,-3.695,-3.6951,0,-3.6744,-3.6778,-3.678,-3.6797,-3.6801,-3.6829,-3.6843,-3.6822,-3.6838,-3.6849,-3.6874,-3.6899,-3.6917,-3.6962,-3.6955,-3.6976,-3.6963,-3.7015,-3.6966,-3.6972,-3.6963,-3.6961,-3.6964,-3.7025,-3.7027,-3.7028,-3.7029,0,-3.6869,-3.686,-3.6883,-3.6902,-3.692,-3.6935,-3.6947,-3.6962,-3.6941,-3.696,-3.6987,-3.7002,-3.703,-3.7054,-3.7072,-3.7073,-3.7048,-3.7044,-3.7055,-3.7062,-3.7066,-3.7064,-3.6907,-3.7041,-3.704,-3.7039,-3.7038,-3.7038,-3.6961,-3.6989,-3.6995,-3.7021,-3.7027,-3.7039,-3.7064,-3.7059,-3.7081,-3.7102,-3.7088,-3.712,-3.7126,-3.7147,-3.7152,-3.7176,-3.7155,-3.7171,-3.7175,-3.718,-3.7185,-3.7063,-3.7179,-3.7179,-3.7178,-3.7178,-3.7178,0,-3.7084,-3.7086,-3.7109,-3.7127,-3.7146,-3.7121,-3.7132,-3.715,-3.7179,-3.7186,-3.7205,-3.7236,-3.7259,-3.7254,-3.7274,-3.7295,-3.7283,-3.7301,-3.7299,-3.7299,-3.7203,-3.7191,-3.7309,-3.7309,-3.7309,-3.7309,-3.7309,-3.7309,-3.715,-3.7196,-3.7188,-3.7237,-3.7238,-3.7269,-3.7277,-3.7288,-3.7293,-3.7329,-3.7348,-3.7345,-3.7347,-3.7367,-3.7387,-3.7385,-3.7394,-3.7415,-3.7409,-3.7319,-3.7306,-3.7294,-3.7282,-3.7418,-3.7418,-3.7503,-3.7503,-3.7504]}]]